Probability
0 0 1 1 1 1 1 1 0 0 0 0 0 1 2 2 1 1 2 5 7 4 2 4 4 3 4 6 7 8 7 4 1 0 0 0 0 0 0 0 0 0 0
0 0 1 1 0 0 0 0 0 0 0 0 0 0 1 1 1 1 2 4 5 4 4 5 4 2 3 5 6 8 9 7 5 3 1 0 0 0 0 0 0 0 0
0 0 0 0 0 0 0 0 0 0 0 0 0 0 0 0 0 0 1 3 3 3 5 6 4 2 2 4 6 8 11 13 12 9 5 2 2 1 0 0 0 0 0
0 0 0 0 0 0 0 0 0 0 0 0 0 0 0 0 0 0 1 2 3 4 5 6 4 3 3 4 5 7 11 16 18 16 10 5 3 2 1 0 0 0 0
0 0 0 0 0 0 0 0 0 0 0 0 0 0 0 0 0 0 1 2 2 3 4 5 5 5 5 5 5 6 9 14 18 17 13 8 6 3 2 1 0 0 0
0 0 0 0 0 0 0 0 0 0 0 0 0 0 0 0 0 0 1 1 1 2 3 4 4 4 5 7 8 8 9 12 16 18 17 14 11 8 5 2 1 0 0
0 0 0 0 0 0 0 0 0 0 0 0 0 0 0 0 0 0 0 0 0 1 1 2 2 3 4 6 9 9 9 11 14 20 24 22 19 17 13 6 1 0 0
0 0 0 0 0 0 0 0 0 0 0 0 0 0 0 0 0 0 0 1 1 1 1 1 1 2 2 4 5 6 7 8 11 17 26 28 27 27 24 14 5 1 0
0 0 0 0 0 0 0 0 0 0 0 0 0 0 0 0 0 0 0 1 1 2 2 2 2 2 2 2 2 2 3 5 7 11 19 26 30 31 32 26 15 5 1
0 0 0 0 0 0 0 0 0 0 0 0 0 0 0 0 0 0 0 0 1 1 2 2 2 2 2 2 2 1 2 3 5 6 10 19 26 30 33 32 23 10 3
0 0 0 0 0 0 0 0 0 0 0 0 0 0 0 0 0 0 0 0 0 0 1 1 1 1 2 2 2 2 2 3 4 4 6 12 19 24 28 29 24 14 7
0 0 0 0 0 0 0 0 0 0 0 0 0 0 0 0 0 0 0 0 0 0 0 0 0 1 1 1 1 2 2 2 2 3 4 7 13 17 20 23 23 19 15
0 0 0 0 0 0 0 0 0 0 0 0 0 0 0 0 0 0 0 0 0 0 0 0 0 0 0 0 0 1 1 1 1 1 2 4 7 9 12 16 21 23 24
0 0 0 0 0 0 0 0 0 0 0 0 0 0 0 0 0 0 0 0 0 0 0 0 0 0 0 0 0 0 0 0 0 0 1 1 3 3 5 8 13 18 21
0 0 0 0 0 0 0 0 0 0 0 0 0 0 0 0 0 0 0 0 0 0 0 0 0 0 0 0 0 0 0 0 0 0 0 0 1 1 1 3 5 8 9
0 0 0 0 0 0 0 0 0 0 0 0 0 0 0 0 0 0 0 0 0 0 0 0 0 0 0 0 0 0 0 0 0 0 0 0 0 0 0 0 1 1 2
0 0 0 0 0 0 0 0 0 0 0 0 0 0 0 0 0 0 0 0 0 0 0 0 0 0 0 0 0 0 0 0 0 0 0 0 0 0 0 0 0 0 0
0 0 0 0 0 0 0 0 0 0 0 0 0 0 0 0 0 0 0 0 0 0 0 0 0 0 0 0 0 0 0 0 0 0 0 0 0 0 0 0 0 0 0
0 0 0 0 0 0 0 0 0 0 0 0 0 0 0 0 0 0 0 0 0 0 0 0 0 0 0 0 0 0 0 0 0 0 0 0 0 0 0 0 0 0 0
0 0 0 0 0 0 0 0 0 0 0 0 0 0 0 0 0 0 0 0 0 0 0 0 0 0 0 0 0 0 0 0 0 0 0 0 0 0 0 0 0 0 0
0 0 0 0 0 0 0 0 0 0 0 0 0 0 0 0 0 0 0 0 0 0 0 0 0 0 0 0 0 0 0 0 0 0 0 0 0 0 0 0 0 0 0
0 0 0 0 0 0 0 0 0 0 0 0 0 0 0 0 0 0 0 0 0 0 0 0 0 0 0 0 0 0 0 0 0 0 0 0 0 0 0 0 0 0 0
0 0 0 0 0 0 0 0 0 0 0 0 0 0 0 0 0 0 0 0 0 0 0 0 0 0 0 0 0 0 0 0 0 0 0 0 0 0 0 0 0 0 0
0 0 0 0 0 0 0 0 0 0 0 0 0 0 0 0 0 0 0 0 0 0 0 0 0 0 0 0 0 0 0 0 0 0 0 0 0 0 0 0 0 0 0
0 0 0 0 0 0 0 0 0 0 0 0 0 0 0 0 0 0 0 0 0 0 0 0 0 0 0 0 0 0 0 0 0 0 0 0 0 0 0 0 0 0 0
0 0 0 0 0 0 0 0 0 0 0 0 0 0 0 0 0 0 0 0 0 0 0 0 0 0 0 0 0 0 0 0 0 0 0 0 0 0 0 0 0 0 0
Wind_Speed
2 1 1 1 1 1 1 1 1 2 2 2 2 3 3 3 3 3 3 10 12 13 14 16 17 17 17 16 16 17 17 17 15 14 14 14 14 14 13 13 12 12 11
2 2 1 0 0 1 1 1 2 1 1 1 2 2 3 3 4 4 4 7 13 15 15 16 17 17 18 18 18 18 17 17 16 15 15 15 14 14 14 14 13 12 12
3 2 1 1 1 1 0 0 1 0 1 1 2 3 3 3 4 4 5 4 6 13 16 16 16 17 18 19 19 19 19 17 17 17 16 16 15 15 15 14 14 13 12
4 3 2 1 1 1 1 1 1 1 1 1 2 3 2 2 4 4 5 5 5 6 11 17 17 17 18 20 20 20 19 19 18 18 18 17 17 16 16 15 15 14 14
4 3 2 1 2 2 2 1 1 1 1 2 2 2 2 3 3 4 4 6 6 6 6 10 16 17 18 20 20 20 20 20 19 19 20 19 19 18 17 17 16 16 15
4 4 3 3 3 3 2 2 1 1 1 1 3 3 3 3 3 3 4 4 4 6 7 7 7 10 18 18 18 19 20 20 20 21 21 21 20 19 18 18 17 17 16
4 4 3 3 3 2 2 2 1 2 2 2 2 4 4 3 2 2 2 2 3 4 5 6 5 5 6 15 17 18 19 20 20 21 21 21 21 20 20 19 18 18 18
4 4 3 2 2 2 3 3 3 2 2 2 2 2 4 5 4 3 2 2 3 2 3 5 5 6 5 4 8 16 18 19 20 21 21 21 21 21 20 21 20 19 19
3 4 4 3 2 2 2 2 2 2 1 2 1 2 1 2 4 4 3 3 3 2 3 3 4 5 6 5 5 10 16 18 20 21 21 21 21 21 21 22 22 21 20
2 3 4 4 3 2 2 1 2 1 1 1 2 1 1 2 1 4 4 3 4 4 4 4 3 4 4 4 6 9 12 14 17 19 20 20 21 21 22 23 24 23 22
0 2 3 3 3 2 2 1 1 1 1 1 1 1 1 1 1 1 4 5 5 4 3 4 3 3 3 4 4 6 9 10 11 13 15 17 19 21 23 24 25 25 24
1 1 3 3 2 2 1 1 1 0 1 1 1 1 1 1 1 1 2 3 4 4 4 3 3 3 3 3 5 6 7 8 10 11 12 14 15 18 22 24 25 26 26
1 1 2 2 2 2 2 1 1 1 1 2 2 2 2 3 3 2 2 3 3 4 4 3 3 3 3 2 3 7 7 8 9 9 11 12 13 15 17 20 23 24 25
2 2 2 2 2 2 2 1 1 2 2 2 3 3 2 3 3 3 3 2 3 3 3 5 3 3 3 3 5 6 4 7 8 9 10 11 11 13 14 16 18 20 22
2 3 2 2 1 2 2 2 2 3 2 3 3 4 3 3 3 3 3 3 3 3 4 4 3 4 3 3 5 3 4 7 8 9 9 10 11 12 13 14 16 17 19
3 3 2 2 2 2 2 2 3 3 3 4 3 4 4 3 3 3 3 3 3 4 4 4 4 4 4 5 6 4 5 9 10 10 10 10 11 11 12 13 14 16 18
4 4 3 3 3 3 3 3 4 4 4 4 4 4 5 4 3 3 3 3 3 3 4 5 3 3 4 5 5 4 4 5 5 9 10 10 11 12 12 13 14 15 16
4 4 4 4 4 4 4 4 5 4 4 5 5 5 5 4 4 4 3 4 4 4 4 6 4 3 4 5 5 5 5 4 5 8 10 10 11 12 12 13 14 14 15
4 4 4 4 5 5 4 5 5 5 5 5 5 5 6 5 5 4 5 5 4 5 4 4 4 3 3 4 4 4 4 4 5 6 9 10 11 12 12 13 14 14 15
5 5 5 5 5 5 5 5 5 5 5 5 5 5 6 6 6 6 5 6 5 5 4 4 4 4 3 4 2 3 4 3 3 4 5 5 7 10 11 12 13 14 15
6 6 5 5 5 5 5 5 5 5 5 5 5 5 6 8 10 8 6 5 5 4 4 4 4 3 3 3 3 3 3 3 4 3 3 3 3 3 5 8 11 13 14
5 5 5 6 6 5 7 9 7 5 5 6 6 6 6 8 10 11 11 10 9 7 6 5 4 5 6 5 4 3 3 2 4 3 2 3 2 4 4 4 8 12 13
6 6 6 6 6 8 11 11 12 7 6 6 6 6 6 7 8 6 8 10 9 11 11 7 7 8 7 6 5 5 4 5 5 4 2 4 3 4 4 5 9 11 12
5 5 6 7 6 8 11 12 13 8 6 7 7 7 7 8 8 8 7 7 7 7 8 7 7 9 8 7 7 6 6 5 5 4 4 4 3 4 3 4 7 9 11
5 6 5 7 7 8 11 13 11 5 6 8 8 7 7 8 11 12 7 7 8 7 10 12 12 11 12 12 9 4 4 4 5 4 4 4 3 3 3 3 5 7 9
7 6 7 7 8 9 11 13 12 5 6 7 6 7 10 10 11 10 6 6 8 8 7 7 7 7 8 9 11 8 6 6 5 4 5 5 4 3 3 3 3 3 3
Wind_Direction
123 113 128 168 203 194 199 218 222 232 234 239 238 232 222 218 214 211 220 209 209 211 208 209 205 204 203 203 202 200 197 195 191 188 185 184 182 181 179 177 174 172 170
111 100 90 80 293 236 224 225 231 235 249 250 263 248 233 226 219 213 214 216 214 215 216 217 214 211 210 208 207 205 203 201 197 193 191 189 188 187 187 185 182 180 177
98 95 83 63 352 324 308 340 335 10 320 302 286 272 251 236 229 216 212 216 220 223 223 223 222 219 217 214 213 210 207 204 201 198 197 194 192 191 191 190 188 186 184
107 98 86 62 18 39 35 43 43 39 357 330 304 288 274 259 250 234 220 217 217 224 228 227 225 224 223 221 219 216 211 208 204 202 201 199 197 196 195 194 192 190 189
110 104 94 68 50 52 36 29 48 57 1 332 306 294 292 275 262 258 240 227 220 221 224 231 229 227 228 228 226 222 217 213 209 206 205 204 203 200 198 198 197 195 193
115 108 93 64 57 54 31 24 20 16 8 331 321 323 299 282 272 262 255 245 232 229 226 228 228 232 232 231 230 227 223 219 215 211 209 208 208 205 202 201 201 199 198
123 113 101 79 69 65 37 21 26 19 358 0 13 336 321 311 303 284 285 273 260 248 233 225 218 218 230 231 231 229 228 226 221 216 214 212 210 208 205 205 204 203 202
142 136 124 112 91 68 40 38 48 41 357 22 50 16 345 338 336 331 331 320 306 285 258 244 226 219 222 221 229 232 231 231 228 222 218 215 212 209 207 207 206 206 205
153 145 140 132 116 101 72 47 68 85 16 348 47 99 57 303 313 322 337 348 339 325 307 287 253 237 227 221 223 233 234 233 232 229 223 218 215 211 208 208 208 208 208
163 161 150 141 131 117 104 85 103 108 103 353 345 32 184 197 254 314 321 332 337 332 317 307 292 265 243 228 223 227 234 235 235 235 231 226 219 214 212 210 211 211 210
53 150 144 132 129 126 125 97 89 96 143 177 248 302 331 344 161 197 301 322 329 317 312 301 295 286 267 245 233 228 228 232 234 236 235 231 227 222 218 216 215 215 214
36 97 131 134 142 149 165 191 196 219 217 226 228 217 208 233 262 230 265 296 304 302 309 306 307 301 289 263 249 234 224 226 229 233 238 235 231 229 224 220 220 220 218
102 142 135 149 162 192 209 204 213 250 248 248 245 237 222 219 214 206 224 270 288 295 307 307 298 299 292 279 264 253 239 232 229 233 239 240 236 234 231 226 222 222 222
180 175 153 166 195 218 228 214 225 246 241 248 260 252 245 246 224 210 209 230 292 303 303 290 303 296 303 294 277 270 267 251 240 234 237 241 240 238 234 230 226 224 222
176 161 160 177 219 237 244 235 236 252 252 250 254 256 250 253 245 232 215 196 206 269 285 281 290 300 307 298 286 271 262 261 256 246 240 239 240 241 238 231 227 224 222
191 187 203 216 240 255 255 241 248 254 255 258 250 256 260 256 256 247 233 219 199 209 252 263 260 275 293 298 294 280 264 268 263 257 250 244 242 241 239 234 229 225 222
201 204 215 226 240 250 252 245 249 252 250 260 265 256 259 258 256 257 250 239 228 207 246 269 258 272 282 286 294 287 274 263 260 256 254 250 246 244 240 235 230 227 225
210 212 216 225 238 243 244 242 250 250 241 248 255 255 260 262 257 255 250 248 245 229 227 263 276 278 273 274 275 280 277 267 256 256 253 253 250 245 240 237 233 229 225
214 220 218 227 238 244 243 241 239 244 242 243 245 246 253 254 258 256 251 249 249 253 228 239 263 263 272 278 287 287 280 275 268 261 255 253 252 250 243 239 235 230 226
212 221 224 229 234 237 238 241 242 241 243 246 247 245 247 244 246 250 251 246 246 251 245 243 256 264 268 278 277 283 295 287 280 277 264 254 253 253 248 244 238 232 228
219 219 224 233 234 233 234 231 232 233 237 247 254 252 251 255 253 250 249 240 238 238 241 243 253 263 266 274 265 260 271 286 282 256 265 263 254 252 247 244 241 235 228
227 224 226 231 237 237 236 230 220 227 233 240 252 259 264 268 269 268 266 258 237 228 228 230 239 242 251 247 247 250 258 278 288 272 243 269 243 253 250 241 240 235 230
224 226 230 232 238 244 247 247 240 224 229 237 243 253 266 269 270 266 270 274 267 251 233 222 230 239 242 237 235 250 244 239 244 254 245 267 252 254 253 252 247 241 233
218 226 233 237 241 249 248 249 246 231 232 240 240 241 248 261 267 260 259 263 259 258 247 235 228 237 240 236 226 233 240 252 258 253 214 249 252 248 252 250 253 247 239
223 226 231 236 241 253 252 252 243 223 234 246 246 245 241 250 262 265 256 255 262 265 263 252 239 241 245 245 235 230 240 241 260 259 214 220 243 247 253 252 253 251 247
225 230 238 238 239 248 253 252 239 215 234 249 253 251 248 249 257 264 245 240 253 259 262 270 265 264 257 256 249 228 222 228 237 255 228 205 220 212 258 251 242 245 246